Weather observations for the past three days for
Tacoma, Tacoma Narrows Airport
Imperial (Metric)
Date Time (pdt) Wind (mph) Vis. (mi.) Weather Sky Cond. Temperature (ºF) Relative Humidity Wind Chill (°F) Heat Index (°F) Pressure Precipitation (in)
Air Dwpt 6 hour altimeter (in) sea level (mb) 1 hr 3 hr 6 hr
Max. Min.
19 00:53 Vrbl 3 10.00 Fair CLR 63 55 76% 30.14 1020.2
18 23:53 SW 5 10.00 Fair CLR 64 55 73% 30.13 1019.9
18 22:53 Vrbl 6 10.00 Fair CLR 66 55 82.9 66 68% 30.12 1019.5
18 21:53 SW 3 10.00 Fair CLR 68 55.9 65% 30.1 1019.1
18 20:53 SW 9 10.00 Fair CLR 70 55.9 61% 30.08 1018.5
18 19:53 SW 9 10.00 Fair CLR 75 55.9 52% 78 30.06 1017.7
18 18:53 W 8 10.00 Fair CLR 78.1 55.9 47% 79 30.06 1017.5
18 17:53 Vrbl 7 10.00 Fair CLR 82.9 57.9 43% 83 30.05 1017.2
18 16:53 W 6 10.00 Fair CLR 82.9 55.9 82.9 64.9 40% 82 30.05 1017.3
18 15:53 Vrbl 7 10.00 Fair CLR 82 57.9 44% 82 30.05 1017.5
18 14:53 Vrbl 6 10.00 Fair CLR 80.1 57 45% 80 30.07 1017.9
18 13:53 NW 5 10.00 Fair CLR 77 57 50% 79 30.08 1018.3
18 12:53 NW 7 10.00 Fair CLR 75 55.9 52% 78 30.08 1018.4
18 11:53 Vrbl 5 10.00 Fair CLR 71.1 55.9 59% 30.09 1018.8
18 10:53 Vrbl 5 10.00 Fair CLR 66.9 55 66.9 57 66% 30.1 1019.0
18 09:53 Vrbl 6 10.00 Fair CLR 64 54 70% 30.1 1019.2
18 08:53 Vrbl 6 10.00 Mostly Cloudy BKN011 62.1 54 75% 30.11 1019.3
18 07:53 Vrbl 5 10.00 Partly Cloudy SCT009 61 54 78% 30.1 1018.8
18 06:53 W 5 10.00 Fair CLR 57.9 54 87% 30.1 1018.9
18 05:53 SW 3 10.00 Fair CLR 57 54 90% 30.08 1018.4
18 04:53 SW 3 10.00 Fair CLR 57 53.1 62.1 57 87% 30.08 1018.1
18 03:53 SW 3 10.00 Fair CLR 57.9 54 87% 30.07 1017.9
18 02:53 SW 5 10.00 A Few Clouds FEW003 59 55 87% 30.06 1017.7
18 01:53 W 5 10.00 Fair CLR 60.1 55 84% 30.07 1017.8
18 00:53 SW 3 10.00 Fair CLR 60.1 55.9 86% 30.06 1017.8
17 23:53 Vrbl 7 10.00 Fair CLR 61 55.9 84% 30.06 1017.5
17 22:53 SW 6 10.00 Fair CLR 62.1 55.9 82.9 62.1 80% 30.05 1017.2
17 21:53 Vrbl 7 10.00 Fair CLR 64 55.9 75% 30.04 1016.9
17 20:53 SW 8 G 18 10.00 Fair CLR 66.9 57 71% 30.02 1016.2
17 19:53 SW 8 10.00 Fair CLR 73 57.9 59% 30 1015.5
17 18:53 W 8 10.00 Fair CLR 77 59 54% 79 29.99 1015.1
17 17:53 W 8 10.00 Fair CLR 82 61 49% 83 29.99 1015.1
17 16:53 W 5 10.00 Fair CLR 81 61 82 69.1 51% 82 29.99 1015.1
17 15:53 NW 7 10.00 Fair CLR 80.1 60.1 51% 81 29.99 1015.3
17 14:53 Vrbl 7 10.00 Fair CLR 78.1 60.1 54% 79 30 1015.5
17 13:53 SW 8 10.00 Fair CLR 75 59 58% 77 30 1015.3
17 12:53 S 9 10.00 Fair CLR 73.9 59 60% 30 1015.4
17 11:53 W 5 10.00 Fair CLR 73 59 62% 29.99 1015.2
17 10:53 Vrbl 7 10.00 Fair CLR 70 57.9 70 62.1 66% 29.99 1015.0
17 09:53 W 7 10.00 Fair CLR 66 57 73% 29.99 1015.2
17 08:53 SW 8 10.00 Fair CLR 64.9 57 76% 29.99 1015.2
17 07:53 S 7 10.00 Fair CLR 63 55.9 78% 29.99 1015.0
17 06:53 N 3 10.00 Fair CLR 63 55.9 78% 29.96 1014.1
17 05:53 W 5 10.00 Fair CLR 63 55.9 78% 29.98 1014.8
17 04:53 W 5 10.00 Fair CLR 66 59 78.1 64.9 78% 29.97 1014.4
17 03:53 S 6 10.00 Fair CLR 66.9 57.9 73% 29.94 1013.3
17 02:53 S 5 10.00 Fair CLR 66.9 60.1 79% 29.93 1013.1
17 01:53 Calm 10.00 Fair CLR 70 57 64% 29.92 1012.6
17 00:53 N 3 10.00 Fair CLR 71.1 57 61% 29.91 1012.4
16 23:53 Calm 10.00 Fair CLR 73 57 57% 29.91 1012.4
16 22:53 N 6 10.00 Fair CLR 75 57 86 75 54% 78 29.9 1012.0
16 21:53 NE 7 10.00 Fair CLR 80.1 57 45% 80 29.9 1012.1
16 20:53 N 6 10.00 Fair CLR 79 57 47% 80 29.9 1012.1
16 19:53 NE 6 10.00 Fair CLR 84 55.9 38% 83 29.9 1012.0
16 18:53 N 7 10.00 Fair CLR 84.9 55.9 37% 84 29.9 1012.2
16 17:53 E 7 10.00 Fair CLR 84.9 55.9 37% 84 29.92 1012.7
16 16:53 Calm 10.00 Fair CLR 86 55.9 88 75 36% 85 29.93 1013.2
16 15:53 Vrbl 5 10.00 Fair CLR 84.9 55 36% 84 29.94 1013.5
16 14:53 Vrbl 7 10.00 Fair CLR 86 55.9 36% 85 29.96 1014.2
16 13:53 NE 9 10.00 Fair CLR 82.9 54 37% 82 29.98 1014.8
16 12:53 N 9 10.00 Fair CLR 82 54 38% 81 29.99 1015.2
16 11:53 Vrbl 6 10.00 Fair CLR 79 57 47% 80 30.01 1015.7
16 10:53 N 8 10.00 Fair CLR 75.9 57.9 75.9 57.9 54% 78 30.02 1016.2
16 09:53 Vrbl 3 10.00 Fair CLR 71.1 57.9 63% 30.03 1016.5
16 08:53 Vrbl 3 10.00 Fair CLR 69.1 57.9 68% 30.03 1016.5
16 07:53 Vrbl 3 10.00 Fair CLR 64.9 57.9 78% 30.03 1016.5
16 06:53 N 3 10.00 Fair CLR 62.1 57 84% 30.03 1016.6
16 05:53 Calm 10.00 Fair CLR 59 55.9 90% 30.03 1016.7
16 04:53 N 3 10.00 Fair CLR 60.1 55.9 68 59 86% 30.02 1016.3
16 03:53 Calm 10.00 Fair CLR 61 57 87% 30.02 1016.2
16 02:53 N 3 10.00 Fair CLR 62.1 57 84% 30.02 1016.3
16 01:53 Calm 10.00 Fair CLR 63 57 81% 30.02 1016.3
Date Time (pdt) Wind (mph) Vis. (mi.) Weather Sky Cond. Air Dwpt Max. Min. Relative Humidity Wind Chill (°F) Heat Index (°F) altimeter (in) sea level (mb) 1 hr 3 hr 6 hr
6 hour
Temperature (ºF) Pressure Precipitation (in)